Starlink 31758

operational
NORAD ID: 59621 Int'l Des: 2024-080 Owner: SPXS Country: US Constellation: starlink
LEOCIRCULAR

About Starlink 31758

Description loading...

Live Position

Loading 3D Globe...

Upcoming Passes

Altitude History

Altitude vs Time

uPlot chart will show altitude changes over time

Two-Line Element Set

1 59621U 24080W 25304.66062802 .00001509 00000-0 64334-4 0 9990
2 59621 43.0052 42.7601 0000959 281.5207 78.5537 15.27582083 84847
Epoch: Oct 31, 2025 • Age: 10 hours

Current Status

Altitude 482.5 km
Velocity 7.63 km/s
Sub-Earth Point 14.03°N, 134.85°E
Launch Date Apr 28, 2024
Age 1.5 years
Type internet

Technical Details

Classification Payload
Mass 730.00 kg
Dry Mass 700.00 kg
Total Mass 730.00 kg
Length 0.30 m
Diameter 4.10 m
Span 29.00 m
Shape Box + pan
Manufacturer SPXS
Bus Type Starlink V2M
Phase Status In Orbit
Owner/State SPXS/US

Large Constellations

Loading constellations...